Simultaneous Nadir Overpasses (SNOs) Predictions

Prediction of SNOs between AQUA and NOAA-19 Satellite Orbit:

Table of predicted SNOs for the next 14.0 days since TLE Epoch: 6/13/2014
Index Date (AQUA) Time (AQUA) Lat,Lon (AQUA) SZA (AQUA ) Date (NOAA-19) Time (NOAA-19) Lat,Lon (NOAA-19) SZA (NOAA-19 ) Distance(km) Time Diff (sec)
1 06/15/2014 00:11:17 76.20, 165.43 53.17 06/15/2014 00:11:04 76.20, 165.49 53.16 1.95 13
2 06/15/2014 00:58:43 -69.96, -13.86 133.44 06/15/2014 00:59:57 -70.15, -12.84 133.24 43.69 74
3 06/17/2014 04:55:38 76.45, 93.56 53.38 06/17/2014 04:55:00 76.44, 93.64 53.38 2.46 38
4 06/17/2014 05:44:51 -75.83, -96.85 127.33 06/17/2014 05:45:44 -75.84, -96.92 127.33 1.85 53
5 06/19/2014 09:40:02 76.85, 21.10 53.81 06/19/2014 09:39:00 76.86, 21.03 53.84 1.94 62
6 06/19/2014 10:29:08 -75.90,-168.12 127.30 06/19/2014 10:29:36 -75.89,-168.02 127.32 2.90 28
7 06/21/2014 15:13:34 -76.42, 119.18 126.71 06/21/2014 15:13:39 -76.43, 119.08 126.69 2.82 5
8 06/23/2014 19:57:53 -76.61, 47.47 126.46 06/23/2014 19:57:34 -76.61, 47.43 126.45 1.06 19
9 06/23/2014 20:45:08 69.70,-130.14 46.18 06/23/2014 20:46:21 69.88,-128.95 46.37 49.61 73
10 06/26/2014 00:42:10 -76.72, -23.98 126.27 06/26/2014 00:41:27 -76.71, -23.91 126.27 2.28 43




NCC Satellite Simultaneous Nadir Overpasses (SNOs) Prediction Service
